Location: Ingoldesthorpe
(52.8667°N, 0.5167°E)
Time: 19:43:23
(UTC+00:00)

ATLAS 3B R/B - Pass Details

Date: 19 May 2025
Orbit: 935 x 1258 km, 63.8° (Epoch: 21 June)

Event Time Altitude Azimuth Distance (km) Brightness Sun altitude
Exits shadow 21:30:07 12° 133° (SE) 2,920 4.4 -10.7°
Maximum altitude 21:33:29 17° 103° (ESE) 2,672 4.4 -11.0°
Drops below altitude 10° 21:37:56 10° 68° (ENE) 3,202 5.1 -11.4°
Sets 21:41:55 0° 50° (NE) 4,203 5.9 -11.7°
